Time,TemperatureF,DewpointF,PressureIn,WindDirection,WindDirectionDegrees,WindSpeedMPH,WindSpeedGustMPH,Humidity,HourlyPrecipIn,Conditions,Clouds,dailyrainin,SoftwareType,DateUTC
2013-02-12 00:03:00,44.5,32.7,30.18,WSW,248,1.8,2.2,63,0.00,,,0.00,WUHU216HW,2013-02-12 08:03:00,
2013-02-12 00:09:00,44.5,32.7,30.17,WSW,248,2.2,2.5,63,0.00,,,0.00,WUHU216HW,2013-02-12 08:09:00,
2013-02-12 00:14:00,44.5,32.7,30.19,WSW,248,3.1,3.1,63,0.00,,,0.00,WUHU216HW,2013-02-12 08:14:00,
2013-02-12 00:19:00,44.5,32.7,30.19,WSW,248,2.7,3.4,63,0.00,,,0.00,WUHU216HW,2013-02-12 08:19:00,
2013-02-12 00:24:00,44.5,32.7,30.17,WSW,248,2.5,3.4,63,0.00,,,0.00,WUHU216HW,2013-02-12 08:24:00,
2013-02-12 00:29:00,44.5,32.7,30.18,WSW,248,2.0,2.9,63,0.00,,,0.00,WUHU216HW,2013-02-12 08:29:00,
2013-02-12 00:34:00,44.5,32.7,30.19,WSW,248,1.3,2.9,63,0.00,,,0.00,WUHU216HW,2013-02-12 08:34:00,
2013-02-12 00:39:00,44.5,32.7,30.17,WSW,248,1.6,2.9,63,0.00,,,0.00,WUHU216HW,2013-02-12 08:39:00,
2013-02-12 00:44:00,44.3,32.5,30.19,WSW,248,1.1,2.0,63,0.00,,,0.00,WUHU216HW,2013-02-12 08:44:00,
2013-02-12 00:49:00,44.3,32.5,30.18,WSW,248,1.3,1.8,63,0.00,,,0.00,WUHU216HW,2013-02-12 08:49:00,
2013-02-12 00:54:00,44.3,32.5,30.18,WSW,248,1.6,1.8,63,0.00,,,0.00,WUHU216HW,2013-02-12 08:54:00,
2013-02-12 00:59:00,44.3,32.5,30.18,WSW,248,1.1,1.8,63,0.00,,,0.00,WUHU216HW,2013-02-12 08:59:00,
2013-02-12 01:04:00,44.3,32.5,30.18,WSW,248,1.8,1.8,63,0.00,,,0.00,WUHU216HW,2013-02-12 09:04:00,
2013-02-12 01:09:00,44.3,32.5,30.18,SW,225,1.1,1.8,63,0.00,,,0.00,WUHU216HW,2013-02-12 09:09:00,
2013-02-12 01:14:00,44.1,32.3,30.19,SW,225,1.1,1.8,63,0.00,,,0.00,WUHU216HW,2013-02-12 09:14:00,
2013-02-12 01:20:00,44.1,32.7,30.18,SW,225,1.3,1.8,64,0.00,,,0.00,WUHU216HW,2013-02-12 09:20:00,
2013-02-12 01:25:00,43.9,32.5,30.20,SW,225,1.1,1.3,64,0.00,,,0.00,WUHU216HW,2013-02-12 09:25:00,
2013-02-12 01:30:00,43.9,32.1,30.19,WSW,248,1.8,1.8,63,0.00,,,0.00,WUHU216HW,2013-02-12 09:30:00,
2013-02-12 01:35:00,43.9,32.1,30.18,SW,225,1.3,1.8,63,0.00,,,0.00,WUHU216HW,2013-02-12 09:35:00,
2013-02-12 01:40:00,43.9,32.1,30.19,SW,225,1.6,1.8,63,0.00,,,0.00,WUHU216HW,2013-02-12 09:40:00,
2013-02-12 01:45:00,43.9,32.1,30.19,SW,225,1.1,1.8,63,0.00,,,0.00,WUHU216HW,2013-02-12 09:45:00,
2013-02-12 01:51:00,43.9,32.5,30.18,SW,225,0.9,1.3,64,0.00,,,0.00,WUHU216HW,2013-02-12 09:51:00,
2013-02-12 01:56:00,43.7,32.0,30.18,WSW,248,1.1,1.8,63,0.00,,,0.00,WUHU216HW,2013-02-12 09:56:00,
2013-02-12 02:01:00,43.9,32.1,30.19,SW,225,1.6,1.8,63,0.00,,,0.00,WUHU216HW,2013-02-12 10:01:00,
2013-02-12 02:06:00,43.9,32.1,30.20,WSW,248,0.4,1.8,63,0.00,,,0.00,WUHU216HW,2013-02-12 10:06:00,
2013-02-12 02:11:00,43.9,32.1,30.19,SW,225,1.1,2.5,63,0.00,,,0.00,WUHU216HW,2013-02-12 10:11:00,
2013-02-12 02:16:00,43.9,32.1,30.20,SW,225,1.3,2.5,63,0.00,,,0.00,WUHU216HW,2013-02-12 10:16:00,
2013-02-12 02:21:00,43.9,32.1,30.20,SW,225,1.6,1.6,63,0.00,,,0.00,WUHU216HW,2013-02-12 10:21:00,
2013-02-12 02:26:00,43.7,32.0,30.21,SW,225,1.1,1.6,63,0.00,,,0.00,WUHU216HW,2013-02-12 10:26:00,
2013-02-12 02:31:00,43.6,31.8,30.20,SW,225,1.1,1.3,63,0.00,,,0.00,WUHU216HW,2013-02-12 10:31:00,
2013-02-12 02:36:00,43.6,31.8,30.20,SW,225,1.3,1.3,63,0.00,,,0.00,WUHU216HW,2013-02-12 10:36:00,
2013-02-12 02:41:00,43.6,31.8,30.19,WSW,248,1.1,1.8,63,0.00,,,0.00,WUHU216HW,2013-02-12 10:41:00,
2013-02-12 02:46:00,43.6,31.8,30.20,SW,225,1.1,1.8,63,0.00,,,0.00,WUHU216HW,2013-02-12 10:46:00,
2013-02-12 02:51:00,43.6,31.8,30.20,SW,225,0.9,1.6,63,0.00,,,0.00,WUHU216HW,2013-02-12 10:51:00,
2013-02-12 02:56:00,43.6,31.8,30.21,SW,225,0.4,1.1,63,0.00,,,0.00,WUHU216HW,2013-02-12 10:56:00,
2013-02-12 03:01:00,43.4,31.6,30.20,SW,225,0.7,1.1,63,0.00,,,0.00,WUHU216HW,2013-02-12 11:01:00,
2013-02-12 03:06:00,43.2,31.4,30.19,SW,225,0.9,1.1,63,0.00,,,0.00,WUHU216HW,2013-02-12 11:06:00,
2013-02-12 03:12:00,43.2,31.8,30.19,SSW,203,0.9,1.1,64,0.00,,,0.00,WUHU216HW,2013-02-12 11:12:00,
2013-02-12 03:17:00,43.0,31.7,30.20,SW,225,1.1,1.1,64,0.00,,,0.00,WUHU216HW,2013-02-12 11:17:00,
2013-02-12 03:22:00,43.0,31.2,30.20,SW,225,0.7,1.1,63,0.00,,,0.00,WUHU216HW,2013-02-12 11:22:00,
2013-02-12 03:27:00,43.0,31.7,30.20,SW,225,1.1,1.1,64,0.00,,,0.00,WUHU216HW,2013-02-12 11:27:00,
2013-02-12 03:32:00,43.0,31.7,30.19,SSW,203,1.3,1.3,64,0.00,,,0.00,WUHU216HW,2013-02-12 11:32:00,
2013-02-12 03:37:00,43.0,31.7,30.19,SW,225,1.1,1.3,64,0.00,,,0.00,WUHU216HW,2013-02-12 11:37:00,
2013-02-12 03:42:00,43.0,31.7,30.23,SSW,203,0.7,1.3,64,0.00,,,0.00,WUHU216HW,2013-02-12 11:42:00,
2013-02-12 03:47:00,43.0,31.7,30.24,SSW,203,0.7,1.1,64,0.00,,,0.00,WUHU216HW,2013-02-12 11:47:00,
2013-02-12 03:52:00,43.0,31.7,30.23,SW,225,1.1,1.1,64,0.00,,,0.00,WUHU216HW,2013-02-12 11:52:00,
2013-02-12 03:57:00,43.0,31.7,30.22,SW,225,0.7,1.1,64,0.00,,,0.00,WUHU216HW,2013-02-12 11:57:00,
2013-02-12 04:02:00,43.0,31.7,30.24,SW,225,0.7,0.9,64,0.00,,,0.00,WUHU216HW,2013-02-12 12:02:00,
2013-02-12 04:07:00,42.8,31.9,30.23,SW,225,0.4,0.9,65,0.00,,,0.00,WUHU216HW,2013-02-12 12:07:00,
2013-02-12 04:12:00,42.8,31.9,30.23,SW,225,0.4,0.9,65,0.00,,,0.00,WUHU216HW,2013-02-12 12:12:00,
2013-02-12 04:18:00,42.8,31.9,30.23,West,270,1.1,1.1,65,0.00,,,0.00,WUHU216HW,2013-02-12 12:18:00,
2013-02-12 04:23:00,42.7,32.0,30.24,WSW,248,0.7,1.1,66,0.00,,,0.00,WUHU216HW,2013-02-12 12:23:00,
2013-02-12 04:28:00,42.5,32.0,30.24,WSW,248,1.1,1.3,66,0.00,,,0.00,WUHU216HW,2013-02-12 12:28:00,
2013-02-12 04:33:00,42.5,32.0,30.25,WSW,248,1.1,1.3,66,0.00,,,0.00,WUHU216HW,2013-02-12 12:33:00,
2013-02-12 04:38:00,42.5,32.0,30.25,WSW,248,1.1,1.8,66,0.00,,,0.00,WUHU216HW,2013-02-12 12:38:00,
2013-02-12 04:43:00,42.5,32.3,30.24,WSW,248,1.1,1.8,67,0.00,,,0.00,WUHU216HW,2013-02-12 12:43:00,
2013-02-12 04:48:00,42.5,32.7,30.24,WSW,248,0.7,1.3,68,0.00,,,0.00,WUHU216HW,2013-02-12 12:48:00,
2013-02-12 04:53:00,42.1,32.8,30.24,SW,225,0.4,1.3,69,0.00,,,0.00,WUHU216HW,2013-02-12 12:53:00,
2013-02-12 04:58:00,41.9,32.9,30.25,SW,225,0.7,0.7,70,0.00,,,0.00,WUHU216HW,2013-02-12 12:58:00,
2013-02-12 05:03:00,41.9,32.6,30.24,SW,225,0.4,0.7,69,0.00,,,0.00,WUHU216HW,2013-02-12 13:03:00,
2013-02-12 05:08:00,41.8,32.0,30.25,SW,225,0.7,0.7,68,0.00,,,0.00,WUHU216HW,2013-02-12 13:08:00,
2013-02-12 05:13:00,41.8,32.0,30.22,SW,225,0.7,0.7,68,0.00,,,0.00,WUHU216HW,2013-02-12 13:13:00,
2013-02-12 05:18:00,41.8,32.0,30.21,SW,225,0.7,0.9,68,0.00,,,0.00,WUHU216HW,2013-02-12 13:18:00,
2013-02-12 05:23:00,41.8,32.0,30.22,SW,225,0.7,0.9,68,0.00,,,0.00,WUHU216HW,2013-02-12 13:23:00,
2013-02-12 05:29:00,41.6,31.8,30.22,SW,225,0.7,0.9,68,0.00,,,0.00,WUHU216HW,2013-02-12 13:29:00,
2013-02-12 05:34:00,41.4,32.1,30.22,SW,225,0.4,0.9,69,0.00,,,0.00,WUHU216HW,2013-02-12 13:34:00,
2013-02-12 05:39:00,41.4,32.1,30.23,SW,225,0.4,0.7,69,0.00,,,0.00,WUHU216HW,2013-02-12 13:39:00,
2013-02-12 05:44:00,41.4,32.1,30.22,SW,225,0.4,0.9,69,0.00,,,0.00,WUHU216HW,2013-02-12 13:44:00,
2013-02-12 05:49:00,41.2,31.9,30.22,SW,225,0.4,0.9,69,0.00,,,0.00,WUHU216HW,2013-02-12 13:49:00,
2013-02-12 05:54:00,41.2,31.9,30.22,SW,225,0.4,1.1,69,0.00,,,0.00,WUHU216HW,2013-02-12 13:54:00,
2013-02-12 05:59:00,41.0,31.7,30.22,SW,225,0.9,1.1,69,0.00,,,0.00,WUHU216HW,2013-02-12 13:59:00,
2013-02-12 06:04:00,41.2,31.9,30.21,SW,225,0.7,1.1,69,0.00,,,0.00,WUHU216HW,2013-02-12 14:04:00,
2013-02-12 06:09:00,41.2,31.9,30.22,SW,225,0.9,1.1,69,0.00,,,0.00,WUHU216HW,2013-02-12 14:09:00,
2013-02-12 06:14:00,41.4,32.1,30.22,SW,225,1.1,1.1,69,0.00,,,0.00,WUHU216HW,2013-02-12 14:14:00,
2013-02-12 06:19:00,41.6,32.2,30.22,SW,225,0.9,1.1,69,0.00,,,0.00,WUHU216HW,2013-02-12 14:19:00,
2013-02-12 06:25:00,41.6,32.2,30.22,SW,225,0.7,1.1,69,0.00,,,0.00,WUHU216HW,2013-02-12 14:25:00,
2013-02-12 06:30:00,41.6,31.8,30.24,SW,225,0.4,0.9,68,0.00,,,0.00,WUHU216HW,2013-02-12 14:30:00,
2013-02-12 06:35:00,41.8,32.0,30.23,SW,225,0.7,0.9,68,0.00,,,0.00,WUHU216HW,2013-02-12 14:35:00,
2013-02-12 06:40:00,41.8,31.6,30.22,SW,225,0.9,0.9,67,0.00,,,0.00,WUHU216HW,2013-02-12 14:40:00,
2013-02-12 06:45:00,41.8,31.6,30.22,SW,225,0.7,0.9,67,0.00,,,0.00,WUHU216HW,2013-02-12 14:45:00,
2013-02-12 06:50:00,41.9,31.8,30.23,SW,225,0.9,1.1,67,0.00,,,0.00,WUHU216HW,2013-02-12 14:50:00,
2013-02-12 06:55:00,42.1,32.0,30.23,SW,225,0.9,1.1,67,0.00,,,0.00,WUHU216HW,2013-02-12 14:55:00,
2013-02-12 07:00:00,42.1,32.0,30.23,SW,225,1.8,1.8,67,0.00,,,0.00,WUHU216HW,2013-02-12 15:00:00,
2013-02-12 07:05:00,42.1,32.0,30.22,SW,225,1.3,1.8,67,0.00,,,0.00,WUHU216HW,2013-02-12 15:05:00,
2013-02-12 07:10:00,42.3,31.8,30.24,SW,225,1.1,1.3,66,0.00,,,0.00,WUHU216HW,2013-02-12 15:10:00,
2013-02-12 07:15:00,42.3,31.8,30.24,SW,225,1.6,1.8,66,0.00,,,0.00,WUHU216HW,2013-02-12 15:15:00,
2013-02-12 07:20:00,42.5,32.0,30.24,WSW,248,1.3,1.8,66,0.00,,,0.00,WUHU216HW,2013-02-12 15:20:00,
2013-02-12 07:26:00,42.7,32.0,30.25,WSW,248,1.1,1.6,66,0.00,,,0.00,WUHU216HW,2013-02-12 15:26:00,
2013-02-12 07:31:00,42.8,31.9,30.25,WSW,248,2.5,2.5,65,0.00,,,0.00,WUHU216HW,2013-02-12 15:31:00,
2013-02-12 07:36:00,43.4,32.4,30.25,SW,225,1.3,2.5,65,0.00,,,0.00,WUHU216HW,2013-02-12 15:36:00,
2013-02-12 07:41:00,43.7,32.3,30.25,WSW,248,2.5,2.5,64,0.00,,,0.00,WUHU216HW,2013-02-12 15:41:00,
2013-02-12 07:46:00,44.1,32.3,30.25,WSW,248,1.8,2.5,63,0.00,,,0.00,WUHU216HW,2013-02-12 15:46:00,
2013-02-12 07:51:00,44.5,32.7,30.26,WSW,248,1.3,2.5,63,0.00,,,0.00,WUHU216HW,2013-02-12 15:51:00,
2013-02-12 07:56:00,44.6,32.9,30.26,WSW,248,0.9,2.2,63,0.00,,,0.00,WUHU216HW,2013-02-12 15:56:00,
2013-02-12 08:01:00,45.0,33.1,30.25,WSW,248,1.8,1.8,63,0.00,,,0.00,WUHU216HW,2013-02-12 16:01:00,
2013-02-12 08:06:00,45.2,33.0,30.25,WSW,248,1.6,1.8,62,0.00,,,0.00,WUHU216HW,2013-02-12 16:06:00,
2013-02-12 08:11:00,45.4,33.1,30.26,WSW,248,1.8,1.8,62,0.00,,,0.00,WUHU216HW,2013-02-12 16:11:00,
2013-02-12 08:16:00,45.7,33.4,30.27,WSW,248,1.3,1.8,62,0.00,,,0.00,WUHU216HW,2013-02-12 16:16:00,
2013-02-12 08:21:00,45.9,33.2,30.26,WSW,248,1.1,1.3,61,0.00,,,0.00,WUHU216HW,2013-02-12 16:21:00,
2013-02-12 08:26:00,46.3,33.1,30.26,WSW,248,0.7,1.3,60,0.00,,,0.00,WUHU216HW,2013-02-12 16:26:00,
2013-02-12 08:32:00,46.6,33.5,30.27,WSW,248,0.9,1.3,60,0.00,,,0.00,WUHU216HW,2013-02-12 16:32:00,
2013-02-12 08:37:00,47.0,33.4,30.27,WSW,248,0.9,1.1,59,0.00,,,0.00,WUHU216HW,2013-02-12 16:37:00,
2013-02-12 08:42:00,47.2,34.0,30.26,WSW,248,1.1,1.3,60,0.00,,,0.00,WUHU216HW,2013-02-12 16:42:00,
2013-02-12 08:47:00,47.3,34.2,30.27,WSW,248,0.0,1.3,60,0.00,,,0.00,WUHU216HW,2013-02-12 16:47:00,
2013-02-12 08:52:00,47.5,34.4,30.27,North,0,0.0,0.4,60,0.00,,,0.00,WUHU216HW,2013-02-12 16:52:00,
2013-02-12 08:57:00,48.1,34.5,30.27,ENE,68,0.4,0.4,59,0.00,,,0.00,WUHU216HW,2013-02-12 16:57:00,
2013-02-12 09:02:00,48.2,35.1,30.27,East,90,0.0,0.9,60,0.00,,,0.00,WUHU216HW,2013-02-12 17:02:00,
2013-02-12 09:07:00,48.6,35.8,30.27,North,0,0.2,0.9,61,0.00,,,0.00,WUHU216HW,2013-02-12 17:07:00,
2013-02-12 09:12:00,48.8,36.0,30.27,ESE,113,0.2,1.1,61,0.00,,,0.00,WUHU216HW,2013-02-12 17:12:00,
2013-02-12 09:17:00,49.0,36.1,30.27,NE,45,0.4,1.1,61,0.00,,,0.00,WUHU216HW,2013-02-12 17:17:00,
2013-02-12 09:22:00,49.3,36.5,30.28,SSE,158,0.2,0.7,61,0.00,,,0.00,WUHU216HW,2013-02-12 17:22:00,
2013-02-12 09:27:00,49.7,36.4,30.27,West,270,1.1,1.1,60,0.00,,,0.00,WUHU216HW,2013-02-12 17:27:00,
2013-02-12 09:32:00,50.0,36.3,30.27,West,270,0.0,1.3,59,0.00,,,0.00,WUHU216HW,2013-02-12 17:32:00,
2013-02-12 09:38:00,50.4,36.6,30.27,West,270,0.4,1.3,59,0.00,,,0.00,WUHU216HW,2013-02-12 17:38:00,
2013-02-12 09:43:00,50.8,36.9,30.27,WSW,248,1.1,1.1,59,0.00,,,0.00,WUHU216HW,2013-02-12 17:43:00,
2013-02-12 09:48:00,51.3,37.5,30.27,WNW,293,0.2,1.1,59,0.00,,,0.00,WUHU216HW,2013-02-12 17:48:00,
2013-02-12 09:53:00,51.5,37.1,30.26,East,90,0.4,1.1,58,0.00,,,0.00,WUHU216HW,2013-02-12 17:53:00,
2013-02-12 09:58:00,51.8,37.9,30.28,NE,45,0.4,1.8,59,0.00,,,0.00,WUHU216HW,2013-02-12 17:58:00,
2013-02-12 10:03:00,52.0,38.1,30.28,NNW,338,0.9,1.8,59,0.00,,,0.00,WUHU216HW,2013-02-12 18:03:00,
2013-02-12 10:08:00,52.2,37.8,30.28,North,0,0.4,1.6,58,0.00,,,0.00,WUHU216HW,2013-02-12 18:08:00,
2013-02-12 10:13:00,52.6,38.6,30.27,East,90,1.6,2.2,59,0.00,,,0.00,WUHU216HW,2013-02-12 18:13:00,
2013-02-12 10:18:00,52.9,38.5,30.28,ENE,68,0.4,2.2,58,0.00,,,0.00,WUHU216HW,2013-02-12 18:18:00,
2013-02-12 10:23:00,53.1,38.7,30.28,East,90,1.1,1.1,58,0.00,,,0.00,WUHU216HW,2013-02-12 18:23:00,
2013-02-12 10:28:00,53.3,38.9,30.28,NE,45,0.4,2.0,58,0.00,,,0.00,WUHU216HW,2013-02-12 18:28:00,
2013-02-12 10:33:00,53.6,39.3,30.28,NE,45,0.9,2.7,58,0.00,,,0.00,WUHU216HW,2013-02-12 18:33:00,
2013-02-12 10:38:00,54.0,40.0,30.29,ESE,113,0.2,2.9,59,0.00,,,0.00,WUHU216HW,2013-02-12 18:38:00,
2013-02-12 10:43:00,54.4,39.4,30.28,NNW,338,0.9,2.9,57,0.00,,,0.00,WUHU216HW,2013-02-12 18:43:00,
2013-02-12 10:49:00,54.4,38.9,30.27,NE,45,1.8,2.7,56,0.00,,,0.00,WUHU216HW,2013-02-12 18:49:00,
2013-02-12 10:54:00,54.5,38.2,30.28,NNE,23,3.8,3.8,54,0.00,,,0.00,WUHU216HW,2013-02-12 18:54:00,
2013-02-12 10:59:00,54.7,37.8,30.29,East,90,2.0,3.8,53,0.00,,,0.00,WUHU216HW,2013-02-12 18:59:00,
2013-02-12 11:04:00,54.9,39.0,30.29,ESE,113,0.9,2.5,55,0.00,,,0.00,WUHU216HW,2013-02-12 19:04:00,
2013-02-12 11:09:00,55.1,41.0,30.28,NE,45,0.0,2.7,59,0.00,,,0.00,WUHU216HW,2013-02-12 19:09:00,
2013-02-12 11:14:00,55.3,41.6,30.29,NE,45,2.2,2.7,60,0.00,,,0.00,WUHU216HW,2013-02-12 19:14:00,
2013-02-12 11:19:00,55.3,42.4,30.28,NE,45,0.4,2.5,62,0.00,,,0.00,WUHU216HW,2013-02-12 19:19:00,
2013-02-12 11:24:00,55.4,42.6,30.28,NNE,23,0.9,2.5,62,0.00,,,0.00,WUHU216HW,2013-02-12 19:24:00,
2013-02-12 11:29:00,55.6,42.8,30.28,North,0,2.0,3.1,62,0.00,,,0.00,WUHU216HW,2013-02-12 19:29:00,
2013-02-12 11:34:00,55.6,42.8,30.29,ESE,113,0.7,3.1,62,0.00,,,0.00,WUHU216HW,2013-02-12 19:34:00,
2013-02-12 11:39:00,56.0,43.6,30.28,North,0,0.7,2.2,63,0.00,,,0.00,WUHU216HW,2013-02-12 19:39:00,
2013-02-12 11:44:00,56.2,44.1,30.28,NNE,23,0.9,1.8,64,0.00,,,0.00,WUHU216HW,2013-02-12 19:44:00,
2013-02-12 11:49:00,56.5,44.0,30.29,East,90,1.1,1.8,63,0.00,,,0.00,WUHU216HW,2013-02-12 19:49:00,
2013-02-12 11:54:00,56.5,44.0,30.27,East,90,0.9,2.5,63,0.00,,,0.00,WUHU216HW,2013-02-12 19:54:00,
2013-02-12 11:59:00,56.7,44.7,30.29,ENE,68,1.8,3.4,64,0.00,,,0.00,WUHU216HW,2013-02-12 19:59:00,
2013-02-12 12:05:00,56.9,44.4,30.27,North,0,1.8,3.4,63,0.00,,,0.00,WUHU216HW,2013-02-12 20:05:00,
2013-02-12 12:10:00,57.2,44.7,30.27,NNE,23,1.8,2.2,63,0.00,,,0.00,WUHU216HW,2013-02-12 20:10:00,
2013-02-12 12:15:00,57.2,45.2,30.28,NE,45,4.0,4.9,64,0.00,,,0.00,WUHU216HW,2013-02-12 20:15:00,
2013-02-12 12:20:00,56.9,45.2,30.29,East,90,0.4,4.9,65,0.00,,,0.00,WUHU216HW,2013-02-12 20:20:00,
2013-02-12 12:25:00,57.1,45.4,30.27,North,0,1.8,4.0,65,0.00,,,0.00,WUHU216HW,2013-02-12 20:25:00,
2013-02-12 12:30:00,56.9,45.2,30.27,North,0,4.3,4.7,65,0.00,,,0.00,WUHU216HW,2013-02-12 20:30:00,
2013-02-12 12:35:00,56.7,45.0,30.27,West,270,1.3,4.7,65,0.00,,,0.00,WUHU216HW,2013-02-12 20:35:00,
2013-02-12 12:40:00,56.5,45.3,30.26,NNW,338,2.2,3.8,66,0.00,,,0.00,WUHU216HW,2013-02-12 20:40:00,
2013-02-12 12:45:00,56.3,45.1,30.27,NE,45,1.8,6.3,66,0.00,,,0.00,WUHU216HW,2013-02-12 20:45:00,
2013-02-12 12:50:00,56.3,45.5,30.26,West,270,0.4,6.3,67,0.00,,,0.00,WUHU216HW,2013-02-12 20:50:00,
2013-02-12 12:55:00,56.2,45.4,30.27,ESE,113,0.4,3.8,67,0.00,,,0.00,WUHU216HW,2013-02-12 20:55:00,
2013-02-12 13:00:00,56.3,45.5,30.27,NE,45,1.1,4.9,67,0.00,,,0.00,WUHU216HW,2013-02-12 21:00:00,
2013-02-12 13:06:00,56.2,44.9,30.27,NNE,23,5.1,5.1,66,0.00,,,0.00,WUHU216HW,2013-02-12 21:06:00,
2013-02-12 13:11:00,56.0,45.2,30.26,NNW,338,3.1,5.1,67,0.00,,,0.00,WUHU216HW,2013-02-12 21:11:00,
2013-02-12 13:16:00,55.8,45.0,30.27,NE,45,1.8,4.3,67,0.00,,,0.00,WUHU216HW,2013-02-12 21:16:00,
2013-02-12 13:21:00,56.0,45.2,30.26,NNW,338,0.7,4.3,67,0.00,,,0.00,WUHU216HW,2013-02-12 21:21:00,
2013-02-12 13:26:00,56.0,44.7,30.27,NNW,338,1.1,4.5,66,0.00,,,0.00,WUHU216HW,2013-02-12 21:26:00,
2013-02-12 13:31:00,56.2,44.6,30.26,North,0,4.0,4.5,65,0.00,,,0.00,WUHU216HW,2013-02-12 21:31:00,
2013-02-12 13:36:00,56.2,44.9,30.26,NW,315,1.1,4.0,66,0.00,,,0.00,WUHU216HW,2013-02-12 21:36:00,
2013-02-12 13:41:00,56.3,45.1,30.25,North,0,1.3,4.0,66,0.00,,,0.00,WUHU216HW,2013-02-12 21:41:00,
2013-02-12 13:46:00,56.2,45.4,30.26,NE,45,2.2,4.3,67,0.00,,,0.00,WUHU216HW,2013-02-12 21:46:00,
2013-02-12 13:51:00,56.2,45.7,30.25,East,90,0.9,4.5,68,0.00,,,0.00,WUHU216HW,2013-02-12 21:51:00,
2013-02-12 13:56:00,56.3,45.9,30.25,WNW,293,1.1,4.5,68,0.00,,,0.00,WUHU216HW,2013-02-12 21:56:00,
2013-02-12 14:01:00,56.3,45.9,30.26,WSW,248,1.6,2.5,68,0.00,,,0.00,WUHU216HW,2013-02-12 22:01:00,
2013-02-12 14:06:00,56.5,45.6,30.25,North,0,0.4,2.5,67,0.00,,,0.00,WUHU216HW,2013-02-12 22:06:00,
2013-02-12 14:11:00,56.5,45.6,30.25,West,270,0.9,3.6,67,0.00,,,0.00,WUHU216HW,2013-02-12 22:11:00,
2013-02-12 14:16:00,56.5,45.3,30.25,WNW,293,0.2,3.6,66,0.00,,,0.00,WUHU216HW,2013-02-12 22:16:00,
2013-02-12 14:21:00,56.7,45.0,30.26,ENE,68,1.6,3.4,65,0.00,,,0.00,WUHU216HW,2013-02-12 22:21:00,
2013-02-12 14:26:00,56.5,44.5,30.25,North,0,4.0,4.0,64,0.00,,,0.00,WUHU216HW,2013-02-12 22:26:00,
2013-02-12 14:32:00,56.5,44.0,30.25,NE,45,2.9,4.0,63,0.00,,,0.00,WUHU216HW,2013-02-12 22:32:00,
2013-02-12 14:37:00,56.2,42.0,30.25,NE,45,2.5,4.0,59,0.00,,,0.00,WUHU216HW,2013-02-12 22:37:00,
2013-02-12 14:42:00,56.2,43.3,30.25,WNW,293,1.1,4.0,62,0.00,,,0.00,WUHU216HW,2013-02-12 22:42:00,
2013-02-12 14:47:00,56.2,42.9,30.24,North,0,1.8,3.8,61,0.00,,,0.00,WUHU216HW,2013-02-12 22:47:00,
2013-02-12 14:52:00,56.2,42.9,30.25,SW,225,0.0,2.5,61,0.00,,,0.00,WUHU216HW,2013-02-12 22:52:00,
2013-02-12 14:57:00,56.2,42.9,30.25,NNE,23,1.8,2.5,61,0.00,,,0.00,WUHU216HW,2013-02-12 22:57:00,
2013-02-12 15:02:00,56.2,43.8,30.24,NW,315,1.1,2.9,63,0.00,,,0.00,WUHU216HW,2013-02-12 23:02:00,
2013-02-12 15:07:00,56.3,43.9,30.24,NNE,23,2.5,2.9,63,0.00,,,0.00,WUHU216HW,2013-02-12 23:07:00,
2013-02-12 15:12:00,56.3,43.9,30.25,North,0,1.1,2.5,63,0.00,,,0.00,WUHU216HW,2013-02-12 23:12:00,
2013-02-12 15:17:00,56.3,44.3,30.25,North,0,1.1,4.7,64,0.00,,,0.00,WUHU216HW,2013-02-12 23:17:00,
2013-02-12 15:22:00,56.2,43.8,30.24,NNW,338,1.8,4.7,63,0.00,,,0.00,WUHU216HW,2013-02-12 23:22:00,
2013-02-12 15:27:00,56.2,44.1,30.23,NE,45,0.2,3.4,64,0.00,,,0.00,WUHU216HW,2013-02-12 23:27:00,
2013-02-12 15:32:00,55.8,44.2,30.25,NNW,338,0.4,3.4,65,0.00,,,0.00,WUHU216HW,2013-02-12 23:32:00,
2013-02-12 15:38:00,55.8,44.6,30.24,ESE,113,1.1,3.4,66,0.00,,,0.00,WUHU216HW,2013-02-12 23:38:00,
2013-02-12 15:43:00,55.6,44.4,30.24,NNW,338,0.2,4.0,66,0.00,,,0.00,WUHU216HW,2013-02-12 23:43:00,
2013-02-12 15:48:00,55.6,44.8,30.25,NNE,23,1.1,4.0,67,0.00,,,0.00,WUHU216HW,2013-02-12 23:48:00,
2013-02-12 15:53:00,55.4,44.6,30.25,North,0,0.0,1.1,67,0.00,,,0.00,WUHU216HW,2013-02-12 23:53:00,
2013-02-12 15:58:00,55.4,45.5,30.23,North,0,0.2,1.8,69,0.00,,,0.00,WUHU216HW,2013-02-12 23:58:00,
2013-02-12 16:03:00,55.4,45.5,30.25,North,0,0.4,1.8,69,0.00,,,0.00,WUHU216HW,2013-02-13 00:03:00,
2013-02-12 16:08:00,55.1,45.5,30.24,North,0,0.4,1.3,70,0.00,,,0.00,WUHU216HW,2013-02-13 00:08:00,
2013-02-12 16:13:00,54.9,45.7,30.23,WNW,293,0.4,1.6,71,0.00,,,0.00,WUHU216HW,2013-02-13 00:13:00,
2013-02-12 16:18:00,54.7,45.6,30.25,WSW,248,0.4,1.6,71,0.00,,,0.00,WUHU216HW,2013-02-13 00:18:00,
2013-02-12 16:23:00,54.5,45.7,30.24,NNW,338,0.0,0.9,72,0.00,,,0.00,WUHU216HW,2013-02-13 00:23:00,
2013-02-12 16:28:00,54.4,45.6,30.25,NNW,338,0.2,0.4,72,0.00,,,0.00,WUHU216HW,2013-02-13 00:28:00,
2013-02-12 16:33:00,54.2,45.7,30.24,NW,315,0.4,0.7,73,0.00,,,0.00,WUHU216HW,2013-02-13 00:33:00,
2013-02-12 16:38:00,54.0,45.2,30.24,West,270,0.0,0.7,72,0.00,,,0.00,WUHU216HW,2013-02-13 00:38:00,
2013-02-12 16:43:00,53.8,45.4,30.24,West,270,0.4,0.7,73,0.00,,,0.00,WUHU216HW,2013-02-13 00:43:00,
2013-02-12 16:48:00,53.6,45.2,30.23,West,270,0.7,0.9,73,0.00,,,0.00,WUHU216HW,2013-02-13 00:48:00,
2013-02-12 16:53:00,53.3,45.2,30.24,NNW,338,0.4,0.9,74,0.00,,,0.00,WUHU216HW,2013-02-13 00:53:00,
2013-02-12 16:58:00,52.9,45.2,30.23,NW,315,0.7,1.1,75,0.00,,,0.00,WUHU216HW,2013-02-13 00:58:00,
2013-02-12 17:04:00,52.4,45.1,30.24,WNW,293,0.4,1.1,76,0.00,,,0.00,WUHU216HW,2013-02-13 01:04:00,
2013-02-12 17:09:00,52.0,45.1,30.24,WNW,293,0.4,1.1,77,0.00,,,0.00,WUHU216HW,2013-02-13 01:09:00,
2013-02-12 17:14:00,51.5,44.8,30.25,WNW,293,0.4,1.1,78,0.00,,,0.00,WUHU216HW,2013-02-13 01:14:00,
2013-02-12 17:19:00,51.1,44.5,30.24,NW,315,0.4,1.1,78,0.00,,,0.00,WUHU216HW,2013-02-13 01:19:00,
2013-02-12 17:24:00,50.8,44.5,30.24,NW,315,0.9,1.1,79,0.00,,,0.00,WUHU216HW,2013-02-13 01:24:00,
2013-02-12 17:29:00,50.4,44.5,30.24,NW,315,1.1,1.6,80,0.00,,,0.00,WUHU216HW,2013-02-13 01:29:00,
2013-02-12 17:34:00,49.9,44.2,30.25,WNW,293,1.1,1.6,81,0.00,,,0.00,WUHU216HW,2013-02-13 01:34:00,
2013-02-12 17:39:00,49.5,43.8,30.26,West,270,0.2,1.1,81,0.00,,,0.00,WUHU216HW,2013-02-13 01:39:00,
2013-02-12 17:44:00,49.3,43.4,30.26,SSE,158,0.7,1.1,80,0.00,,,0.00,WUHU216HW,2013-02-13 01:44:00,
2013-02-12 17:49:00,49.3,43.0,30.25,South,180,0.0,0.9,79,0.00,,,0.00,WUHU216HW,2013-02-13 01:49:00,
2013-02-12 17:54:00,49.3,43.0,30.25,SE,135,0.4,0.9,79,0.00,,,0.00,WUHU216HW,2013-02-13 01:54:00,
2013-02-12 17:59:00,49.3,43.0,30.25,WNW,293,0.0,0.4,79,0.00,,,0.00,WUHU216HW,2013-02-13 01:59:00,
2013-02-12 18:04:00,49.1,42.8,30.26,West,270,0.0,0.4,79,0.00,,,0.00,WUHU216HW,2013-02-13 02:04:00,
2013-02-12 18:09:00,49.0,43.0,30.26,West,270,0.0,0.2,80,0.00,,,0.00,WUHU216HW,2013-02-13 02:09:00,
2013-02-12 18:14:00,48.8,42.8,30.27,WSW,248,0.7,0.7,80,0.00,,,0.00,WUHU216HW,2013-02-13 02:14:00,
2013-02-12 18:20:00,48.4,43.1,30.26,West,270,1.1,1.1,82,0.00,,,0.00,WUHU216HW,2013-02-13 02:20:00,
2013-02-12 18:25:00,48.2,42.3,30.26,WSW,248,0.0,1.1,80,0.00,,,0.00,WUHU216HW,2013-02-13 02:25:00,
2013-02-12 18:30:00,48.1,42.1,30.27,WSW,248,0.7,0.9,80,0.00,,,0.00,WUHU216HW,2013-02-13 02:30:00,
2013-02-12 18:35:00,47.9,41.9,30.26,WSW,248,0.4,0.7,80,0.00,,,0.00,WUHU216HW,2013-02-13 02:35:00,
2013-02-12 18:40:00,47.9,41.9,30.26,WSW,248,0.4,0.7,80,0.00,,,0.00,WUHU216HW,2013-02-13 02:40:00,
2013-02-12 18:45:00,47.7,41.9,30.28,WSW,248,0.0,0.4,80,0.00,,,0.00,WUHU216HW,2013-02-13 02:45:00,
2013-02-12 18:50:00,47.5,41.7,30.27,WSW,248,0.0,0.0,80,0.00,,,0.00,WUHU216HW,2013-02-13 02:50:00,
2013-02-12 18:55:00,47.3,41.5,30.26,WSW,248,0.2,0.2,80,0.00,,,0.00,WUHU216HW,2013-02-13 02:55:00,
2013-02-12 19:00:00,47.2,41.3,30.26,WSW,248,0.0,0.2,80,0.00,,,0.00,WUHU216HW,2013-02-13 03:00:00,
2013-02-12 19:05:00,47.2,41.3,30.26,WSW,248,0.0,0.0,80,0.00,,,0.00,WUHU216HW,2013-02-13 03:05:00,
2013-02-12 19:10:00,46.8,41.3,30.26,SW,225,0.7,0.7,81,0.00,,,0.00,WUHU216HW,2013-02-13 03:10:00,
2013-02-12 19:15:00,46.6,41.1,30.26,SW,225,0.9,0.9,81,0.00,,,0.00,WUHU216HW,2013-02-13 03:15:00,
2013-02-12 19:20:00,46.4,41.0,30.26,SW,225,0.7,0.9,81,0.00,,,0.00,WUHU216HW,2013-02-13 03:20:00,
2013-02-12 19:26:00,46.4,41.3,30.26,SW,225,0.7,0.7,82,0.00,,,0.00,WUHU216HW,2013-02-13 03:26:00,
2013-02-12 19:31:00,46.4,41.3,30.25,SW,225,0.4,0.7,82,0.00,,,0.00,WUHU216HW,2013-02-13 03:31:00,
2013-02-12 19:36:00,46.1,41.0,30.27,SSW,203,0.2,0.7,82,0.00,,,0.00,WUHU216HW,2013-02-13 03:36:00,
2013-02-12 19:41:00,46.1,41.0,30.26,SSW,203,0.4,0.7,82,0.00,,,0.00,WUHU216HW,2013-02-13 03:41:00,
2013-02-12 19:46:00,46.3,41.1,30.28,South,180,0.4,0.4,82,0.00,,,0.00,WUHU216HW,2013-02-13 03:46:00,
2013-02-12 19:51:00,46.1,41.2,30.27,SW,225,1.3,1.3,83,0.00,,,0.00,WUHU216HW,2013-02-13 03:51:00,
2013-02-12 19:56:00,46.1,41.6,30.27,SW,225,1.1,1.6,84,0.00,,,0.00,WUHU216HW,2013-02-13 03:56:00,
2013-02-12 20:01:00,45.9,41.4,30.26,WSW,248,1.3,1.8,84,0.00,,,0.00,WUHU216HW,2013-02-13 04:01:00,
2013-02-12 20:06:00,45.7,41.2,30.26,WSW,248,2.0,2.0,84,0.00,,,0.00,WUHU216HW,2013-02-13 04:06:00,
2013-02-12 20:11:00,45.7,41.2,30.27,SW,225,1.3,2.0,84,0.00,,,0.00,WUHU216HW,2013-02-13 04:11:00,
2013-02-12 20:16:00,45.7,41.2,30.27,SW,225,1.1,1.8,84,0.00,,,0.00,WUHU216HW,2013-02-13 04:16:00,
2013-02-12 20:21:00,45.5,41.1,30.27,SW,225,1.6,1.6,84,0.00,,,0.00,WUHU216HW,2013-02-13 04:21:00,
2013-02-12 20:26:00,45.4,41.1,30.26,SW,225,1.1,1.6,85,0.00,,,0.00,WUHU216HW,2013-02-13 04:26:00,
2013-02-12 20:32:00,45.4,41.1,30.27,SW,225,1.8,1.8,85,0.00,,,0.00,WUHU216HW,2013-02-13 04:32:00,
2013-02-12 20:37:00,45.4,40.9,30.27,SW,225,1.3,1.8,84,0.00,,,0.00,WUHU216HW,2013-02-13 04:37:00,
2013-02-12 20:42:00,45.4,40.9,30.27,SW,225,1.8,1.8,84,0.00,,,0.00,WUHU216HW,2013-02-13 04:42:00,
2013-02-12 20:47:00,45.4,40.9,30.27,SW,225,1.3,1.8,84,0.00,,,0.00,WUHU216HW,2013-02-13 04:47:00,
2013-02-12 20:52:00,45.4,40.5,30.27,WSW,248,1.1,1.8,83,0.00,,,0.00,WUHU216HW,2013-02-13 04:52:00,
2013-02-12 20:57:00,45.4,40.5,30.28,WSW,248,1.1,1.6,83,0.00,,,0.00,WUHU216HW,2013-02-13 04:57:00,
2013-02-12 21:00:00,45.4,40.5,30.27,WSW,248,1.3,1.6,83,0.00,,,0.00,WUHU216HW,2013-02-13 05:00:00,
2013-02-12 21:01:00,45.4,40.2,30.27,WSW,248,1.1,1.6,82,0.00,,,0.00,WUHU216HW,2013-02-13 05:01:00,
2013-02-12 21:06:00,45.4,39.9,30.27,WSW,248,0.9,1.6,81,0.00,,,0.00,WUHU216HW,2013-02-13 05:06:00,
2013-02-12 21:11:00,45.4,39.9,30.27,WSW,248,0.7,1.1,81,0.00,,,0.00,WUHU216HW,2013-02-13 05:11:00,
2013-02-12 21:16:00,45.4,39.6,30.27,WSW,248,0.7,1.1,80,0.00,,,0.00,WUHU216HW,2013-02-13 05:16:00,
2013-02-12 21:21:00,45.4,39.6,30.27,WSW,248,0.4,1.1,80,0.00,,,0.00,WUHU216HW,2013-02-13 05:21:00,
2013-02-12 21:26:00,45.2,39.1,30.27,SW,225,0.7,0.9,79,0.00,,,0.00,WUHU216HW,2013-02-13 05:26:00,
2013-02-12 21:31:00,45.2,39.1,30.27,SW,225,0.7,0.9,79,0.00,,,0.00,WUHU216HW,2013-02-13 05:31:00,
2013-02-12 21:36:00,45.2,38.7,30.26,WSW,248,1.3,1.3,78,0.00,,,0.00,WUHU216HW,2013-02-13 05:36:00,
2013-02-12 21:41:00,45.0,38.5,30.27,WSW,248,0.7,1.3,78,0.00,,,0.00,WUHU216HW,2013-02-13 05:41:00,
2013-02-12 21:46:00,45.0,38.9,30.28,WSW,248,0.4,1.3,79,0.00,,,0.00,WUHU216HW,2013-02-13 05:46:00,
2013-02-12 21:51:00,44.8,38.3,30.28,WSW,248,0.7,0.9,78,0.00,,,0.00,WUHU216HW,2013-02-13 05:51:00,
2013-02-12 21:57:00,44.8,38.3,30.27,WSW,248,0.7,0.9,78,0.00,,,0.00,WUHU216HW,2013-02-13 05:57:00,
2013-02-12 22:02:00,45.0,38.5,30.27,WSW,248,0.7,0.9,78,0.00,,,0.00,WUHU216HW,2013-02-13 06:02:00,
2013-02-12 22:07:00,45.0,38.5,30.27,WSW,248,0.7,0.9,78,0.00,,,0.00,WUHU216HW,2013-02-13 06:07:00,
2013-02-12 22:12:00,44.8,38.3,30.27,WSW,248,0.7,0.9,78,0.00,,,0.00,WUHU216HW,2013-02-13 06:12:00,
2013-02-12 22:17:00,45.0,38.9,30.27,WSW,248,1.1,1.1,79,0.00,,,0.00,WUHU216HW,2013-02-13 06:17:00,
2013-02-12 22:22:00,45.0,38.9,30.27,WSW,248,1.1,1.1,79,0.00,,,0.00,WUHU216HW,2013-02-13 06:22:00,
2013-02-12 22:27:00,45.0,38.9,30.27,WSW,248,0.4,1.1,79,0.00,,,0.00,WUHU216HW,2013-02-13 06:27:00,
2013-02-12 22:32:00,45.0,38.5,30.27,WSW,248,0.4,0.7,78,0.00,,,0.00,WUHU216HW,2013-02-13 06:32:00,
2013-02-12 22:37:00,44.8,38.1,30.28,WSW,248,0.4,0.7,77,0.00,,,0.00,WUHU216HW,2013-02-13 06:37:00,
2013-02-12 22:42:00,44.8,38.1,30.27,WSW,248,0.4,0.9,77,0.00,,,0.00,WUHU216HW,2013-02-13 06:42:00,
2013-02-12 22:47:00,44.8,38.1,30.27,WSW,248,0.9,0.9,77,0.00,,,0.00,WUHU216HW,2013-02-13 06:47:00,
2013-02-12 22:52:00,44.6,37.9,30.27,WSW,248,0.4,1.1,77,0.00,,,0.00,WUHU216HW,2013-02-13 06:52:00,
2013-02-12 22:57:00,44.6,37.9,30.26,WSW,248,0.2,1.1,77,0.00,,,0.00,WUHU216HW,2013-02-13 06:57:00,
2013-02-12 23:03:00,44.6,37.9,30.27,SW,225,0.7,0.7,77,0.00,,,0.00,WUHU216HW,2013-02-13 07:03:00,
2013-02-12 23:08:00,44.8,38.1,30.26,SW,225,0.7,0.7,77,0.00,,,0.00,WUHU216HW,2013-02-13 07:08:00,
2013-02-12 23:13:00,44.8,38.1,30.26,SW,225,0.9,0.9,77,0.00,,,0.00,WUHU216HW,2013-02-13 07:13:00,
2013-02-12 23:18:00,44.6,37.9,30.27,SW,225,0.7,0.9,77,0.00,,,0.00,WUHU216HW,2013-02-13 07:18:00,
2013-02-12 23:23:00,44.6,37.9,30.27,SW,225,0.7,0.7,77,0.00,,,0.00,WUHU216HW,2013-02-13 07:23:00,
2013-02-12 23:28:00,44.5,37.7,30.26,SW,225,0.7,0.9,77,0.00,,,0.00,WUHU216HW,2013-02-13 07:28:00,
2013-02-12 23:33:00,44.5,37.4,30.26,SW,225,0.7,0.9,76,0.00,,,0.00,WUHU216HW,2013-02-13 07:33:00,
2013-02-12 23:38:00,44.5,37.4,30.26,SW,225,0.4,0.7,76,0.00,,,0.00,WUHU216HW,2013-02-13 07:38:00,
2013-02-12 23:43:00,44.5,37.0,30.27,SW,225,0.4,0.7,75,0.00,,,0.00,WUHU216HW,2013-02-13 07:43:00,
2013-02-12 23:48:00,44.5,37.0,30.27,SW,225,0.4,0.9,75,0.00,,,0.00,WUHU216HW,2013-02-13 07:48:00,
2013-02-12 23:53:00,44.3,36.8,30.26,SW,225,0.0,0.9,75,0.00,,,0.00,WUHU216HW,2013-02-13 07:53:00,
2013-02-12 23:58:00,44.5,37.0,30.26,SW,225,0.0,0.2,75,0.00,,,0.00,WUHU216HW,2013-02-13 07:58:00,